Regional Weather Roundup
Issued by NWS

Home | Current Version | Previous Version | Text Only | Print | Product List | Glossary Off
Versions: 1 2 3 4 5 6 7 8 9 10 11 12 13 14 15 16 17 18 19 20 21 22 23 24 25 26 27 28 29 30 31 32 33 34 35 36 37 38 39 40 41 42 43 44 45 46 47 48 49 50

000
ASUS43 KLSX 291559
RWRMO

WEATHER SUMMARY FOR MISSOURI
NATIONAL WEATHER SERVICE SPRINGFIELD MO
1100 AM CDT WED JUL 29 2015

NOTE: "FAIR" INDICATES FEW OR NO CLOUDS BELOW 12,000 FEET WITH NO
       SIGNIFICANT WEATHER AND/OR OBSTRUCTIONS TO VISIBILITY.
       CURRENT SKY AND/OR WEATHER CONDITIONS ARE NOT AVAILABLE FOR
       CHILLICOTHE AND FARMINGTON.

MOZ001>031-035>038-043-044-053-054-291700-
...NORTHERN AND WESTERN MISSOURI...

CITY           SKY/WX    TMP DP  RH WIND       PRES   REMARKS
KANSAS CTY INT CLOUDY    75  71  87 N5        30.14S
KANSAS C DTWN  CLOUDY    78  71  79 NE8       30.11F
LEE`S SUMMIT   PTSUNNY   75  70  84 NE10      30.13F
ST JOSEPH      CLOUDY    78  74  87 N5        30.12F
CHILLICOTHE      N/A     80  72  76 VRB3      30.14R
KIRKSVILLE     PTSUNNY   80  66  62 N9        30.13R

$$
MOZ066>068-077>081-088>096-101>105-291700-
...SOUTHWEST MISSOURI...

CITY           SKY/WX    TMP DP  RH WIND       PRES   REMARKS
SPRINGFIELD      N/A     88  71  57 W5        30.10S HX  94
JOPLIN         SUNNY     90  71  53 N6        30.10S HX  96

$$
MOZ032>034-039>042-045>050-055>058-069>072-291700-
...CENTRAL MISSOURI...

CITY           SKY/WX    TMP DP  RH WIND       PRES   REMARKS
COLUMBIA       PTSUNNY   79  70  74 N10       30.10F
JEFFERSON CITY MOSUNNY   80  69  69 N10       30.09S
ROLLA          MOSUNNY   83  73  72 NW10      30.08R
SEDALIA        MOSUNNY   80  70  71 N9        30.14R
OSAGE BEACH    PTSUNNY   82  70  65 N7        30.11R

$$
MOZ051-052-059>065-291700-
...EAST CENTRAL MISSOURI...

CITY           SKY/WX    TMP DP  RH WIND       PRES   REMARKS
ST LOUIS INTL  PTSUNNY   84  72  67 NW13      30.05R
SPIRIT OF STL  MOSUNNY   83  74  74 NW13      30.04R
ST CHARLES     PTSUNNY   80  74  81 NW12      30.04R

$$
MOZ072>076-082>087-097>100-106>115-291700-
...SOUTH CENTRAL AND SOUTHEAST MISSOURI...

CITY           SKY/WX    TMP DP  RH WIND       PRES   REMARKS
CAPE GIRARDEAU SUNNY     92  77  61 W6        30.00F HX 105
FARMINGTON     MOSUNNY   88  77  70 SW6       30.07F HX 100
POPLAR BLUFF   MOSUNNY   92  79  65 NW6       30.01S HX 108
WEST PLAINS    SUNNY     90  73  57 VRB6      30.11S HX  98

$$


USA.gov is the U.S. government's official web portal to all federal, state and local government web resources and services.